• In Belarus
  • List of Countries
  • For 7 days
  • Water Temperature
  • Satellite Maps
  • Weather Map
  • Weather Widgets
  • user-avatar
    Login

    Hourly Weather Ganja

    Today, 20 November, Monday

    Time Temperature Precipitation Wind Pressure Humidity
    00:00 +13°C° 0 mm 2 mps 724 mmHg 43%
    01:00 +13°C° 0 mm 2 mps 724 mmHg 43%
    02:00 +13°C° 0 mm 2 mps 724 mmHg 42%
    03:00 +12°C° 0 mm 3 mps 724 mmHg 41%
    04:00 +12°C° 0 mm 3 mps 724 mmHg 42%
    05:00 +12°C° 0 mm 3 mps 724 mmHg 42%
    06:00 +12°C° 0 mm 3 mps 724 mmHg 42%
    07:00 +13°C° 0 mm 3 mps 724 mmHg 40%
    08:00 +14°C° 0 mm 3 mps 724 mmHg 39%
    09:00 +16°C° 0 mm 3 mps 724 mmHg 36%
    10:00 +17°C° 0 mm 3 mps 724 mmHg 35%
    11:00 +18°C° 0 mm 3 mps 724 mmHg 34%
    12:00 +19°C° 0 mm 3 mps 724 mmHg 33%
    13:00 +19°C° 0 mm 3 mps 723 mmHg 33%
    14:00 +19°C° 0 mm 3 mps 723 mmHg 33%
    15:00 +19°C° 0 mm 2 mps 723 mmHg 34%
    16:00 +18°C° 0 mm 2 mps 723 mmHg 37%
    17:00 +16°C° 0 mm 2 mps 723 mmHg 40%
    18:00 +15°C° 0 mm 2 mps 723 mmHg 43%
    19:00 +15°C° 0 mm 2 mps 723 mmHg 43%
    20:00 +14°C° 0 mm 2 mps 723 mmHg 43%
    21:00 +14°C° 0 mm 2 mps 723 mmHg 44%
    22:00 +14°C° 0 mm 2 mps 722 mmHg 44%
    23:00 +13°C° 0 mm 2 mps 722 mmHg 45%

    Tomorrow, 21 November, Tuesday

    Time Temperature Precipitation Wind Pressure Humidity
    00:00 +13°C° 0 mm 2 mps 722 mmHg 46%
    01:00 +13°C° 0 mm 2 mps 722 mmHg 46%
    02:00 +13°C° 0 mm 2 mps 722 mmHg 47%
    03:00 +12°C° 0 mm 2 mps 722 mmHg 48%
    04:00 +12°C° 0 mm 2 mps 721 mmHg 48%
    05:00 +12°C° 0 mm 2 mps 721 mmHg 48%
    06:00 +12°C° 0 mm 2 mps 721 mmHg 48%
    07:00 +13°C° 0 mm 2 mps 721 mmHg 46%
    08:00 +14°C° 0 mm 2 mps 721 mmHg 44%
    09:00 +15°C° 0 mm 2 mps 720 mmHg 42%
    10:00 +16°C° 0 mm 2 mps 720 mmHg 40%
    11:00 +17°C° 0 mm 2 mps 719 mmHg 37%
    12:00 +18°C° 0 mm 3 mps 719 mmHg 35%
    13:00 +18°C° 0 mm 3 mps 719 mmHg 37%
    14:00 +17°C° 0 mm 2 mps 718 mmHg 39%
    15:00 +17°C° 0 mm 2 mps 718 mmHg 41%
    16:00 +16°C° 0 mm 2 mps 718 mmHg 44%
    17:00 +15°C° 0 mm 2 mps 718 mmHg 47%
    18:00 +14°C° 0 mm 2 mps 718 mmHg 51%
    19:00 +14°C° 0 mm 2 mps 717 mmHg 52%
    20:00 +13°C° 0 mm 2 mps 717 mmHg 53%
    21:00 +13°C° 0 mm 2 mps 716 mmHg 54%
    22:00 +13°C° 0 mm 2 mps 716 mmHg 54%
    23:00 +13°C° 0 mm 2 mps 716 mmHg 54%

    Day after tomorrow, 22 November, Wednesday

    Time Temperature Precipitation Wind Pressure Humidity
    00:00 +13°C° 0 mm 2 mps 716 mmHg 54%
    01:00 +11°C° 0 mm 3 mps 716 mmHg 55%
    02:00 +11°C° 0 mm 4 mps 716 mmHg 57%
    03:00 +10°C° 0 mm 5 mps 716 mmHg 58%
    04:00 +10°C° 0 mm 4 mps 716 mmHg 59%
    05:00 +10°C° 0 mm 4 mps 716 mmHg 60%
    06:00 +10°C° 0 mm 4 mps 716 mmHg 60%
    07:00 +9°C° 0 mm 5 mps 716 mmHg 58%
    08:00 +10°C° 0 mm 6 mps 717 mmHg 56%
    09:00 +10°C° 0 mm 7 mps 717 mmHg 53%
    10:00 +11°C° 0 mm 7 mps 717 mmHg 52%
    11:00 +11°C° 0 mm 7 mps 718 mmHg 50%
    12:00 +11°C° 0 mm 7 mps 718 mmHg 48%
    13:00 +11°C° 0.1 mm 7 mps 718 mmHg 50%
    14:00 +10°C° 0.1 mm 6 mps 718 mmHg 51%
    15:00 +10°C° 0.1 mm 6 mps 718 mmHg 53%
    16:00 +9°C° 0.5 mm 6 mps 719 mmHg 57%
    17:00 +8°C° 0.5 mm 6 mps 719 mmHg 60%
    18:00 +7°C° 0.5 mm 6 mps 720 mmHg 63%
    19:00 +7°C° 0.8 mm 5 mps 721 mmHg 64%
    20:00 +6°C° 0.8 mm 4 mps 721 mmHg 65%
    21:00 +7°C° 0.8 mm 3 mps 722 mmHg 67%
    22:00 +7°C° 0.1 mm 3 mps 722 mmHg 67%
    23:00 +5°C° 0.1 mm 3 mps 722 mmHg 67%

    23 November, Thursday

    Time Temperature Precipitation Wind Pressure Humidity
    00:00 +6°C° 0.1 mm 2 mps 722 mmHg 67%
    01:00 +6°C° 0.1 mm 2 mps 723 mmHg 68%
    02:00 +6°C° 0.1 mm 2 mps 723 mmHg 69%
    03:00 +5°C° 0.1 mm 2 mps 723 mmHg 70%
    04:00 +5°C° 0.1 mm 2 mps 723 mmHg 70%
    05:00 +5°C° 0.1 mm 2 mps 723 mmHg 70%
    06:00 +5°C° 0.1 mm 2 mps 724 mmHg 71%
    07:00 +5°C° 0 mm 2 mps 724 mmHg 67%
    08:00 +6°C° 0 mm 2 mps 724 mmHg 64%
    09:00 +7°C° 0 mm 1 mps 724 mmHg 60%
    10:00 +7°C° 0 mm 2 mps 724 mmHg 55%
    11:00 +7°C° 0 mm 2 mps 723 mmHg 50%
    12:00 +8°C° 0 mm 2 mps 723 mmHg 45%
    13:00 +8°C° 0 mm 2 mps 723 mmHg 44%
    14:00 +8°C° 0 mm 2 mps 723 mmHg 43%
    15:00 +8°C° 0 mm 2 mps 723 mmHg 41%
    16:00 +7°C° 0 mm 2 mps 723 mmHg 43%
    17:00 +6°C° 0 mm 2 mps 723 mmHg 44%
    18:00 +5°C° 0 mm 2 mps 724 mmHg 46%
    19:00 +4°C° 0 mm 2 mps 724 mmHg 46%
    20:00 +4°C° 0 mm 2 mps 724 mmHg 47%
    21:00 +4°C° 0 mm 2 mps 725 mmHg 47%
    22:00 +4°C° 0 mm 2 mps 725 mmHg 48%
    23:00 +3°C° 0 mm 2 mps 725 mmHg 49%

    24 November, Friday

    Time Temperature Precipitation Wind Pressure Humidity
    00:00 +2°C° 0 mm 3 mps 725 mmHg 50%
    01:00 +2°C° 0 mm 3 mps 725 mmHg 52%
    02:00 +2°C° 0 mm 3 mps 725 mmHg 55%
    03:00 +1°C° 0 mm 4 mps 726 mmHg 58%
    04:00 +1°C° 0.3 mm 4 mps 726 mmHg 62%
    05:00 +1°C° 0.3 mm 4 mps 726 mmHg 66%
    06:00 +1°C° 0.3 mm 4 mps 727 mmHg 71%
    07:00 +1°C° 0.2 mm 4 mps 727 mmHg 68%
    08:00 +3°C° 0.2 mm 4 mps 728 mmHg 66%
    09:00 +3°C° 0.2 mm 4 mps 728 mmHg 63%
    10:00 +4°C° 0 mm 4 mps 728 mmHg 60%
    11:00 +4°C° 0 mm 4 mps 727 mmHg 57%
    12:00 +5°C° 0 mm 4 mps 727 mmHg 54%
    13:00 +5°C° 0 mm 4 mps 727 mmHg 53%
    14:00 +5°C° 0 mm 4 mps 727 mmHg 53%
    15:00 +5°C° 0 mm 3 mps 727 mmHg 52%
    16:00 +4°C° 0 mm 3 mps 727 mmHg 54%
    17:00 +4°C° 0 mm 2 mps 728 mmHg 57%
    18:00 +3°C° 0 mm 2 mps 728 mmHg 59%
    19:00 +3°C° 0 mm 2 mps 728 mmHg 58%
    20:00 +3°C° 0 mm 2 mps 729 mmHg 58%
    21:00 +2°C° 0 mm 2 mps 729 mmHg 57%
    22:00 +1°C° 0 mm 3 mps 729 mmHg 56%
    23:00 +1°C° 0 mm 3 mps 729 mmHg 56%

    25 November, Saturday

    Time Temperature Precipitation Wind Pressure Humidity
    00:00 +1°C° 0 mm 3 mps 729 mmHg 55%
    01:00 0°C° 0 mm 3 mps 729 mmHg 55%
    02:00 0°C° 0 mm 3 mps 729 mmHg 54%
    03:00 -1°C° 0 mm 4 mps 729 mmHg 54%
    04:00 -1°C° 0 mm 4 mps 730 mmHg 55%
    05:00 -1°C° 0 mm 4 mps 730 mmHg 55%
    06:00 -1°C° 0 mm 4 mps 730 mmHg 56%
    07:00 0°C° 0 mm 4 mps 731 mmHg 55%
    08:00 +1°C° 0 mm 4 mps 731 mmHg 53%
    09:00 +3°C° 0 mm 4 mps 731 mmHg 52%
    10:00 +3°C° 0 mm 5 mps 731 mmHg 50%
    11:00 +5°C° 0 mm 5 mps 731 mmHg 48%
    12:00 +5°C° 0 mm 6 mps 730 mmHg 45%
    13:00 +5°C° 0 mm 6 mps 731 mmHg 45%
    14:00 +5°C° 0 mm 6 mps 731 mmHg 44%
    15:00 +6°C° 0 mm 5 mps 731 mmHg 44%
    16:00 +5°C° 0 mm 5 mps 731 mmHg 46%
    17:00 +4°C° 0 mm 4 mps 732 mmHg 48%
    18:00 +2°C° 0 mm 3 mps 732 mmHg 51%
    19:00 +2°C° 0 mm 3 mps 733 mmHg 51%
    20:00 +2°C° 0 mm 3 mps 733 mmHg 51%
    21:00 +2°C° 0 mm 2 mps 733 mmHg 52%
    22:00 +2°C° 0 mm 2 mps 733 mmHg 52%
    23:00 +2°C° 0 mm 2 mps 733 mmHg 52%
    Show more